Location: Forli
(44.2227°N, 12.0407°E)
Time: 06:32:36
(UTC+01:00)

ISS - Visible Passes

Search period start: 14 February 2026 00:00
Search period end: 24 February 2026 00:00
Orbit: 413 x 429 km, 51.6° (Epoch: 11 February)

Date Brightness Start Highest point End Pass type
(mag) Time Alt. Az. Time Alt. Az. Time Alt. Az.
14 Feb -0.8 04:47:56 12° SE 04:48:23 12° SE 04:49:46 10° ESE visible
14 Feb -3.8 06:21:24 10° SW 06:24:44 85° SSE 06:28:05 10° ENE visible
15 Feb -3.1 05:36:19 29° SSW 05:37:41 52° SE 05:40:58 10° ENE visible
16 Feb -1.8 04:51:28 28° ESE 04:51:28 28° ESE 04:53:42 10° ENE visible
16 Feb -3.2 06:24:28 12° W 06:27:26 43° NNW 06:30:39 10° NE visible
17 Feb -3.7 05:39:28 45° W 05:40:14 61° NNW 05:43:34 10° NE visible
18 Feb -2.2 04:54:21 35° ENE 04:54:21 35° ENE 04:56:25 10° ENE visible
18 Feb -2.4 06:27:20 10° WNW 06:30:12 27° NNW 06:33:07 10° NE visible
19 Feb -0.2 04:09:07 11° ENE 04:09:07 11° ENE 04:09:12 10° ENE visible
19 Feb -2.7 05:42:06 28° NW 05:42:53 32° NNW 05:45:57 10° NE visible
20 Feb -2.1 04:56:48 29° NNE 04:56:48 29° NNE 04:58:47 10° NE visible
20 Feb -2.0 06:30:16 10° WNW 06:32:59 22° N 06:35:42 10° NE visible
21 Feb -0.3 04:11:25 11° NE 04:11:25 11° NE 04:11:37 10° NE visible
21 Feb -2.1 05:44:24 19° NW 05:45:35 24° N 05:48:22 10° NE visible
22 Feb -1.9 04:58:58 24° NNE 04:58:58 24° NNE 05:01:05 10° NE visible
23 Feb -0.5 04:13:30 12° NE 04:13:30 12° NE 04:13:50 10° NE visible
23 Feb -1.9 05:46:28 15° NW 05:48:15 22° N 05:50:58 10° ENE visible
